Regional Weather Roundup
Issued by NWS

Home | Current Version | Previous Version | Text Only | Print | Product List | Glossary On
Versions: 1 2 3 4 5 6 7 8 9 10 11 12 13 14 15 16 17 18 19 20 21 22 23 24 25 26 27 28 29 30 31 32 33 34 35 36 37 38 39 40 41 42 43 44 45 46 47 48 49 50
000
ASUS45 KTFX 091710
RWRMT
MONTANA REGIONAL WEATHER ROUNDUP
NATIONAL WEATHER SERVICE GREAT FALLS MT
1000 AM MST FRI DEC 09 2016

NOTE: "FAIR" INDICATES FEW OR NO CLOUDS BELOW 12000 FEET WITH NO
SIGNIFICANT WEATHER AND/OR OBSTRUCTIONS TO VISIBILITY.

MTZ001>007-043-091800-
WEST OF THE DIVIDE

CITY           SKY/WX    TMP DP  RH WIND       PRES   REMARKS
KALISPELL      CLOUDY     5  -3  69 N10       30.25R WCI -10
MISSOULA       CLOUDY    14   4  64 E10       30.19F WCI   1
BUTTE          CLOUDY     3  -2  79 CALM      30.04R
MULLAN PASS    FOG        7   5  91 S7        29.92S VSB 1/4 WCI  -5
ANACONDA         N/A      3   0  85 CALM      30.07S
DEER LODGE       N/A      5  -2  72 CALM      30.12R
EUREKA           N/A      0  -6  78 CALM      30.31F
HAMILTON         N/A     12   7  79 CALM      30.16R
LIBBY            N/A     10   5  79 CALM      30.25F
PLAINS           N/A     14   4  64 CALM      30.23S
RONAN            N/A     12   6  77 N7        30.21R WCI   1
$$

MTZ008-052>055-091800-
SOUTHWEST MONTANA

CITY           SKY/WX    TMP DP  RH WIND       PRES   REMARKS
BOZEMAN        CLOUDY     2  -3  80 CALM      30.16F
DILLON         CLOUDY     5  -1  76 NW3       30.08S
W YELLOWSTONE  CLOUDY    14  10  85 NW5       30.08R
ENNIS          CLOUDY     7   1  78 SE8       30.10F WCI  -6
THREE FORKS      N/A      4 -41  10 CALM      30.15S
TWIN BRIDGES     N/A      5  -5  63 NW2       30.09R
$$

MTZ009-010-012-014-046-048-049-054-091800-
EAST SLOPES AND CENTRAL MONTANA

CITY           SKY/WX    TMP DP  RH WIND       PRES   REMARKS
CUT BANK       LGT SNOW  -4  -8  83 SE7       30.26S FOG     WCI -18
GREAT FALLS    LGT SNOW  -1  -7  75 E5        30.28S
MALMSTROM AFB  LGT SNOW   0  -6  78 NE3       30.31S
HELENA         CLOUDY     2  -6  69 NW5       30.24R
AUGUSTA        FLURRIES  -4  -8  84 SE2       30.19R
BOWMANS CRNR   FLURRIES  -5  -8  86 NE6       30.18S WCI -17
CHOTEAU          N/A     -2  -8  78 MISG      30.26F
CONRAD           N/A     -2  -6  82 N3        30.26S
FAIRFIELD      LGT SNOW  -4 -10  77 E5        30.25S
POWER          LGT SNOW  -4  -9  77 E3        30.27R
RAYNESFORD     FLURRIES  -3  -8  79 N2        30.24S
ULM            FLURRIES  -2  -7  80 E3        30.29R
$$

MTZ011-013-016-021-045-047-050-051-091800-
NORTH CENTRAL MONTANA

CITY           SKY/WX    TMP DP  RH WIND       PRES   REMARKS
HAVRE          CLOUDY     2  -4  76 E8        30.42S WCI -12
LEWISTOWN      FLURRIES   0  -6  76 SE8       30.22S WCI -14
N BAR RANCH    PTSUNNY   -2  -8  78 E6        30.23S WCI -14
CHINOOK          N/A      1  -4  78 E9        30.47R WCI -14
DENTON         LGT SNOW   0  -4  84 E13G18    30.26S WCI -18
GEYSER         LGT SNOW  -2  -7  82 E6        30.23S VSB 1   WCI -14
GRASS RANGE    LGT SNOW  -1  -5  86 NE6       30.25S WCI -13
JUDITH GAP     LGT SNOW   0  -4  80 MISG      30.17R
ROY            LGT SNOW  -2  -5  84 MISG      30.30R
STANFORD       FLURRIES  -4  -7  87 E5        30.19S
WINIFRED       LGT SNOW  -1  -4  87 MISG      30.27S FOG
$$

MTZ017>020-022>027-061-062-091800-
NORTHEAST MONTANA

CITY           SKY/WX    TMP DP  RH WIND       PRES   REMARKS
GLASGOW        CLOUDY    -3  -7  82 E12       30.51S WCI -21
JORDAN           N/A     -4  -9  79 E6        30.46R WCI -16
SIDNEY         CLOUDY    -6 -11  79 CALM      30.60R
WOLF POINT     CLOUDY    -2  -8  76 E7        30.57F HAZE    WCI -15
PLENTYWOOD       N/A     -4  -9  77 N8        30.54S WCI -19
POPLAR           N/A     -6  -9  84 SE3       30.59F
SCOBEY           N/A     -1 -11  63 CALM      30.45S
$$

MTZ028>42-056>058-091800-
SOUTHCENTRAL AND SOUTHEAST MONTANA

CITY           SKY/WX    TMP DP  RH WIND       PRES   REMARKS
BAKER          CLOUDY    -6 -10  83 E8        30.43R WCI -21
BILLINGS       LGT SNOW   1  -3  83 NE7       30.29S VSB 1   WCI -12
LIVINGSTON     CLOUDY     4  -2  76 E3        30.16S
MILES CITY     CLOUDY   N/A N/A N/A MISG      30.45R
BIG TIMBER     CLOUDY     5   0  78 VRB5      30.21S
EKALAKA          N/A      0  -8  68 SE8       30.26R WCI -14
FORSYTH          N/A      0  -6  78 E7        30.43R WCI -13
HARLOWTON      LGT SNOW   0  -4  84 SE5       30.21S VSB 1
LAUREL           N/A      3  -6  66 NE2       30.24R
$$

REGIONAL REPORTS...DAKOTAS

CITY           SKY/WX    TMP DP  RH WIND       PRES   REMARKS
WILLISTON      CLOUDY    -8 -11  86 CALM      30.60R
MINOT          CLOUDY   -10 -15  78 NW14      30.57R WCI -31
DICKINSON      CLOUDY   -14 -18  82 NW3       30.46R
BEACH          PTSUNNY   -9 -13  84 CALM      30.49S
CROSBY           N/A    -11 -17  77 NW7       30.60R WCI -26
TIOGA            N/A     -9 -13  84 NW7       30.54R WCI -24
WATFORD CITY     N/A    -15 -20  76 SW3       30.58R
BISMARCK       CLOUDY    -1  -7  75 NW7       30.58S WCI -14
GRAND FORKS    CLOUDY     4  -3  73 NW10      30.60R WCI -11
FARGO          CLOUDY     5  -3  69 NW14      30.60R WCI -12
BUFFALO SD       N/A      0  -5  79 NE6       30.32R WCI -12
RAPID CITY     FLURRIES   1  -4  79 N13       30.35R WCI -17
$$

REGIONAL REPORTS...WYOMING/IDAHO/WASHINGTON

CITY           SKY/WX    TMP DP  RH WIND       PRES   REMARKS
GILLETTE       CLOUDY     1  -4  79 W3        30.22R
SHERIDAN       CLOUDY     7  -1  70 CALM      30.26R
BUFFALO WY     CLOUDY     6  -1  73 NW3       30.17R
CODY           CLOUDY     6  -3  66 CALM      30.16R
YELLOWSTONE LA   N/A     20  18  92 CALM      30.06R
IDAHO FALLS    LGT SNOW  20  16  84 N7        30.17R WCI  11
SALMON         CLOUDY    14  10  85 CALM      30.17R
BOISE          FRZ RAIN  28  24  85 CALM      30.15S
SPOKANE        CLOUDY    17  11  77 NE13      30.12S WCI   4
$$

REGIONAL REPORTS...ALBERTA

CITY           SKY/WX    TMP DP  RH WIND       PRES   REMARKS
EDMONTON       PTCLDY   -15 -22  70 E2        30.46F
CALGARY        CRYSTALS  -6 -13  71 S6        30.26S WCI -18
LETHBRIDGE     FLURRIES  -8 -11  84 S6        30.37R WCI -21
MEDICINE HAT   PTSUNNY   -4  -9  77 E6        30.47S WCI -16
WATERTON GATE    N/A    -15 -22  70 N2          N/A
CARDSTON         N/A     -8 -18  59 CALM        N/A
MILK RIVER       N/A     -2  -9  71 SE3         N/A
$$

REGIONAL REPORTS...SASKATCHEWAN

CITY           SKY/WX    TMP DP  RH WIND       PRES   REMARKS
SWIFT CURRENT  CLOUDY    -8  -9  92 NE2       30.45S
REGINA         MOSUNNY  -11 -17  77 NW6       30.58R WCI -25
SASKATOON      CRYSTALS -11 -17  77 N3        30.63R
CYPRESS HILLS    N/A     -9 -15  77 S5          N/A
VAL MARIE        N/A     -2  -8  78 E6          N/A  WCI -14
ROCKGLEN         N/A     -4  -8  84 SW1         N/A
ASSINIBOIA       N/A     -6 -11  77 SE6         N/A  WCI -18
$$



USA.gov is the U.S. government's official web portal to all federal, state and local government web resources and services.